Date String (YYYY-MM-DD hh:mm:ss) UTC,Instrument flags,absolute air pressure of the measurement (hPa),sample flow rate (lpm),inlet stack bypass flow (lpm),air temperature of the measurement (°C),ambient temperature measured by the external sensor (°C),aerosol sample conditioner tube jacket temperature (°C),OPC LED temperature (°C),internal box temperature (°C),relative humidity of the measurement (%),span deviation,mass concentration of particles derived from Lorenz-Mie calculation of OPC scattering (μg/m³),mass concentration of particles derived from Lorenz-Mie calculation of OPC scattering (μg/m³),mass concentration of particles derived from Lorenz-Mie calculation of OPC scattering (μg/m³)
DateTimeUTC,F1_M11,P_M11,Q1_M11,Q2_M11,T1_M11,T2_M11,T3_M11,T4_M11,T5_M11,U1_M11,ZSPAN_M11,X0_M11,X2_M11,X1_M11
2024-06-03 23:00:00,SystemResetWarning,0819.8,4.99,000.00,029.4,029.0,000.0,037.4,031.3,014.3,0000.0,0015.04,0004.27,0003.28
2024-06-03 23:01:00,SystemResetWarning,0820.1,5.01,000.00,029.5,029.1,000.0,037.4,031.3,013.7,0000.0,0014.67,0004.26,0003.28
2024-06-03 23:02:00,SystemResetWarning,0820.2,5.01,000.00,029.6,029.2,000.0,037.4,031.4,014.0,0000.0,0014.56,0004.24,0003.28
2024-06-03 23:03:00,SystemResetWarning,0819.8,5.00,000.00,029.6,028.7,000.0,037.5,031.1,014.5,0000.0,0014.61,0004.21,0003.27
2024-06-03 23:04:00,SystemResetWarning,0819.8,4.98,000.00,029.2,026.4,000.0,037.6,030.0,015.0,0000.0,0015.24,0004.20,0003.26
2024-06-03 23:05:00,SystemResetWarning,0820.0,5.03,000.00,028.9,025.7,000.0,037.6,029.5,014.9,0000.0,0015.29,0004.21,0003.26
2024-06-03 23:06:00,SystemResetWarning,0819.8,4.99,000.00,028.8,026.2,000.0,037.5,029.8,015.6,0000.0,0015.04,0004.27,0003.25
2024-06-03 23:07:00,SystemResetWarning,0819.7,4.99,000.00,028.8,026.7,000.0,037.4,030.1,015.5,0000.0,0015.49,0004.33,0003.25
2024-06-03 23:08:00,SystemResetWarning,0819.7,5.01,000.00,028.8,027.1,000.0,037.4,030.3,015.2,0000.0,0015.31,0004.30,0003.23
2024-06-03 23:09:00,SystemResetWarning,0819.8,5.01,000.00,028.9,027.5,000.0,037.3,030.5,015.0,0000.0,0013.64,0004.30,0003.23
2024-06-03 23:10:00,SystemResetWarning,0819.8,5.00,000.00,029.0,027.8,000.0,037.3,030.7,014.8,0000.0,0014.56,0004.35,0003.23
2024-06-03 23:11:00,SystemResetWarning,0819.8,5.00,000.00,029.1,028.1,000.0,037.3,030.8,014.7,0000.0,0014.44,0004.37,0003.23
2024-06-03 23:12:00,SystemResetWarning,0819.8,5.00,000.00,029.1,028.4,000.0,037.3,031.0,014.5,0000.0,0014.56,0004.35,0003.21
2024-06-03 23:13:00,SystemResetWarning,0819.8,5.00,000.00,029.2,028.6,000.0,037.3,031.1,014.4,0000.0,0014.61,0004.36,0003.19
2024-06-03 23:14:00,SystemResetWarning,0820.1,5.00,000.00,029.3,028.8,000.0,037.4,031.2,014.7,0000.0,0014.10,0004.40,0003.19
2024-06-03 23:15:00,SystemResetWarning,0819.9,5.00,000.00,029.4,028.9,000.0,037.4,031.2,013.9,0000.0,0013.25,0004.49,0003.19
2024-06-03 23:16:00,SystemResetWarning,0819.9,5.01,000.00,029.5,029.0,000.0,037.4,031.3,013.7,0000.0,0013.22,0004.48,0003.19
2024-06-03 23:17:00,SystemResetWarning,0819.8,5.00,000.00,029.6,029.2,000.0,037.5,031.4,013.7,0000.0,0012.85,0004.44,0003.20
2024-06-03 23:18:00,SystemResetWarning,0819.9,4.99,000.00,029.6,029.3,000.0,037.5,031.5,013.7,0000.0,0012.10,0004.37,0003.18
2024-06-03 23:19:00,SystemResetWarning,0819.9,4.99,000.00,029.6,028.6,000.0,037.6,031.2,013.6,0000.0,0011.96,0004.37,0003.19
2024-06-03 23:20:00,SystemResetWarning,0820.1,5.00,000.00,029.3,026.3,000.0,037.7,030.0,014.3,0000.0,0012.51,0004.35,0003.19
2024-06-03 23:21:00,SystemResetWarning,0820.0,5.01,000.00,028.9,025.6,000.0,037.7,029.6,014.8,0000.0,0012.00,0004.34,0003.19
2024-06-03 23:22:00,SystemResetWarning,0819.8,5.02,000.00,028.8,026.2,000.0,037.6,029.8,014.2,0000.0,0011.39,0004.35,0003.19
2024-06-03 23:23:00,SystemResetWarning,0819.8,4.99,000.00,028.8,026.6,000.0,037.5,030.1,014.2,0000.0,0011.07,0004.33,0003.20
2024-06-03 23:24:00,SystemResetWarning,0819.8,4.99,000.00,028.9,027.1,000.0,037.4,030.3,014.4,0000.0,0011.83,0004.33,0003.20
2024-06-03 23:25:00,SystemResetWarning,0819.8,5.01,000.00,028.9,027.5,000.0,037.4,030.5,014.6,0000.0,0012.08,0004.29,0003.20
2024-06-03 23:26:00,SystemResetWarning,0819.8,5.01,000.00,029.0,027.8,000.0,037.4,030.7,014.4,0000.0,0012.88,0004.22,0003.20
2024-06-03 23:27:00,SystemResetWarning,0819.8,4.98,000.00,029.1,028.1,000.0,037.3,030.8,014.1,0000.0,0014.00,0004.22,0003.20
2024-06-03 23:28:00,SystemResetWarning,0819.8,5.00,000.00,029.2,028.3,000.0,037.3,031.0,013.7,0000.0,0014.34,0004.24,0003.21
2024-06-03 23:29:00,SystemResetWarning,0819.8,5.01,000.00,029.2,028.6,000.0,037.4,031.1,013.9,0000.0,0014.91,0004.22,0003.22
2024-06-03 23:30:00,SystemResetWarning,0819.8,5.01,000.00,029.3,028.7,000.0,037.4,031.2,013.8,0000.0,0015.21,0004.27,0003.23
2024-06-03 23:31:00,SystemResetWarning,0819.8,5.00,000.00,029.4,028.9,000.0,037.4,031.3,013.5,0000.0,0015.33,0004.24,0003.22
2024-06-03 23:32:00,SystemResetWarning,0819.9,5.00,000.00,029.5,029.0,000.0,037.5,031.3,013.2,0000.0,0015.19,0004.19,0003.22
2024-06-03 23:33:00,SystemResetWarning,0819.8,5.00,000.00,029.6,029.2,000.0,037.5,031.4,013.4,0000.0,0015.22,0004.15,0003.21
2024-06-03 23:34:00,SystemResetWarning,0819.8,4.99,000.00,029.6,029.3,000.0,037.6,031.5,013.6,0000.0,0015.06,0004.14,0003.20
2024-06-03 23:35:00,SystemResetWarning,0819.9,4.99,000.00,029.7,028.7,000.0,037.6,031.1,013.8,0000.0,0014.60,0004.14,0003.20
2024-06-03 23:36:00,SystemResetWarning,0820.0,5.00,000.00,029.3,026.3,000.0,037.7,030.0,013.9,0000.0,0014.18,0004.16,0003.20
2024-06-03 23:37:00,SystemResetWarning,0819.5,5.01,000.00,028.9,025.5,000.0,037.7,029.6,014.6,0000.0,0013.88,0004.17,0003.21
2024-06-03 23:38:00,SystemResetWarning,0819.7,5.01,000.00,028.8,026.1,000.0,037.6,029.8,014.6,0000.0,0013.14,0004.17,0003.22
2024-06-03 23:39:00,SystemResetWarning,0819.9,4.99,000.00,028.8,026.5,000.0,037.5,030.1,014.3,0000.0,0014.07,0004.14,0003.21
2024-06-03 23:40:00,SystemResetWarning,0820.0,5.00,000.00,028.9,027.0,000.0,037.4,030.3,014.6,0000.0,0014.57,0004.18,0003.22
2024-06-03 23:41:00,SystemResetWarning,0820.1,4.99,000.00,028.9,027.4,000.0,037.4,030.5,014.6,0000.0,0015.33,0004.18,0003.22
2024-06-03 23:42:00,SystemResetWarning,0819.9,5.00,000.00,029.0,027.8,000.0,037.3,030.7,014.8,0000.0,0015.33,0004.18,0003.23
2024-06-03 23:43:00,SystemResetWarning,0819.9,5.00,000.00,029.1,028.1,000.0,037.3,030.8,015.4,0000.0,0015.31,0004.21,0003.25
2024-06-03 23:44:00,SystemResetWarning,0819.7,5.00,000.00,029.2,028.3,000.0,037.3,031.0,015.5,0000.0,0016.44,0004.24,0003.27
2024-06-03 23:45:00,SystemResetWarning,0819.8,5.01,000.00,029.2,028.5,000.0,037.4,031.1,015.9,0000.0,0017.93,0004.27,0003.28
2024-06-03 23:46:00,SystemResetWarning,0819.8,5.00,000.00,029.3,028.7,000.0,037.4,031.2,015.5,0000.0,0019.72,0004.32,0003.29
2024-06-03 23:47:00,SystemResetWarning,0819.8,5.00,000.00,029.4,028.9,000.0,037.4,031.3,015.6,0000.0,0020.16,0004.38,0003.32
2024-06-03 23:48:00,SystemResetWarning,0819.9,4.98,000.00,029.5,029.0,000.0,037.5,031.3,014.8,0000.0,0020.76,0004.43,0003.33
2024-06-03 23:49:00,SystemResetWarning,0819.9,5.01,000.00,029.6,029.1,000.0,037.5,031.4,014.9,0000.0,0020.42,0004.44,0003.33
2024-06-03 23:50:00,SystemResetWarning,0819.9,5.01,000.00,029.6,029.1,000.0,037.6,031.4,015.1,0000.0,0019.80,0004.48,0003.34
2024-06-03 23:51:00,SystemResetWarning,0819.9,4.98,000.00,029.5,027.4,000.0,037.7,030.5,015.7,0000.0,0018.85,0004.49,0003.34
2024-06-03 23:52:00,SystemResetWarning,0820.2,5.01,000.00,029.2,026.6,000.0,037.7,030.1,015.8,0000.0,0018.62,0004.48,0003.35
2024-06-03 23:53:00,SystemResetWarning,0819.9,5.01,000.00,029.1,027.0,000.0,037.7,030.3,014.7,0000.0,0018.39,0004.51,0003.36
2024-06-03 23:54:00,SystemResetWarning,0819.8,4.98,000.00,029.1,027.4,000.0,037.6,030.5,014.9,0000.0,0017.84,0004.56,0003.37
2024-06-03 23:55:00,SystemResetWarning,0820.0,5.00,000.00,029.2,027.7,000.0,037.5,030.7,014.8,0000.0,0016.91,0004.55,0003.37
2024-06-03 23:56:00,SystemResetWarning,0819.9,5.01,000.00,029.2,028.0,000.0,037.5,030.9,014.7,0000.0,0016.44,0004.57,0003.38
2024-06-03 23:57:00,SystemResetWarning,0819.8,5.01,000.00,029.3,028.3,000.0,037.5,031.0,014.3,0000.0,0014.49,0004.54,0003.39
2024-06-03 23:58:00,SystemResetWarning,0820.1,4.99,000.00,029.4,028.5,000.0,037.5,031.1,015.0,0000.0,0014.16,0004.51,0003.39
2024-06-03 23:59:00,SystemResetWarning,0820.1,4.99,000.00,029.4,028.7,000.0,037.5,031.2,015.7,0000.0,0013.55,0004.45,0003.39
